Location: Unspecified
(0.0000°N, 0.0000°E)
Time: 16:53:05
(UTC+00:00)

Transit 2A - All Passes

Search period start: 18 June 2019 00:00
Search period end: 28 June 2019 00:00
Orbit: 593 x 966 km, 66.7° (Epoch: 18 June)

Date Brightness Start Highest point End Pass type
(mag) Time Alt. Az. Time Alt. Az. Time Alt. Az.
18 Jun - 00:48:08 10° WSW 00:52:36 22° WNW 00:57:16 10° NNW night (unlit)
18 Jun - 11:40:18 10° NNW 11:45:03 89° WSW 11:49:28 10° SSE daylight
18 Jun - 22:31:18 10° SSE 22:35:32 20° ESE 22:39:56 10° ENE night (unlit)
19 Jun - 00:13:09 10° SW 00:18:28 34° WNW 00:24:06 10° N night (unlit)
19 Jun - 11:06:24 10° N 11:11:00 48° ENE 11:15:15 10° SE daylight
19 Jun - 21:59:16 10° SE 22:01:30 12° ESE 22:03:45 10° E night (unlit)
19 Jun - 23:38:36 10° SSW 23:44:22 55° WNW 23:50:30 10° N night (unlit)
20 Jun - 10:32:54 10° N 10:36:53 27° ENE 10:40:38 10° SE daylight
20 Jun - 12:17:43 10° W 12:19:41 13° WSW 12:21:36 10° SW daylight
20 Jun - 23:04:23 10° SSW 23:10:17 88° WNW 23:16:36 10° NNE night (unlit)
21 Jun - 10:00:03 10° NNE 10:02:45 15° ENE 10:05:22 10° ESE daylight
21 Jun - 11:42:01 10° WNW 11:45:39 23° WSW 11:49:07 10° SSW daylight
21 Jun - 22:30:27 10° S 22:36:14 59° ESE 22:42:23 10° NNE night (unlit)
22 Jun - 00:17:17 10° W 00:19:25 12° WNW 00:21:34 10° NW night (unlit)
22 Jun - 11:07:15 10° NW 11:11:38 41° WSW 11:15:46 10° S daylight
22 Jun - 21:56:49 10° S 22:02:11 36° ESE 22:07:53 10° NE night (unlit)
22 Jun - 23:41:00 10° WSW 23:45:16 20° WNW 23:49:40 10° NNW night (unlit)
23 Jun - 10:32:55 10° NNW 10:37:36 79° WSW 10:41:59 10° SSE daylight
23 Jun - 21:23:37 10° SSE 21:28:10 23° ESE 21:32:55 10° ENE night (unlit)
23 Jun - 23:05:53 10° SW 23:11:08 31° WNW 23:16:37 10° N night (unlit)
24 Jun - 09:58:57 10° N 10:03:33 55° ENE 10:07:50 10° SSE daylight
24 Jun - 20:51:11 10° SE 20:54:07 14° ESE 20:57:08 10° E night (unlit)
24 Jun - 22:31:15 10° SW 22:37:01 50° WNW 22:43:06 10° N night (unlit)
25 Jun - 09:25:22 10° N 09:29:28 30° ENE 09:33:19 10° SE daylight
25 Jun - 11:11:09 10° W 11:12:14 11° WSW 11:13:19 10° WSW daylight
25 Jun - 21:56:59 10° SSW 22:02:56 80° WNW 22:09:16 10° NNE night (unlit)
26 Jun - 08:52:20 10° NNE 08:55:20 17° ENE 08:58:13 10° ESE daylight
26 Jun - 10:34:53 10° WNW 10:38:12 20° WSW 10:41:25 10° SSW daylight
26 Jun - 21:22:58 10° S 21:28:52 66° ESE 21:35:08 10° NNE night (unlit)
26 Jun - 23:10:57 10° WNW 23:12:04 10° WNW 23:13:12 10° WNW night (unlit)
27 Jun - 09:59:58 10° NW 10:04:11 36° WSW 10:08:11 10° S daylight
27 Jun - 20:49:17 10° S 20:54:50 41° ESE 21:00:41 10° NE night (unlit)
27 Jun - 22:33:55 10° WSW 22:37:55 18° WNW 22:42:01 10° NNW night (unlit)
